Regional Weather Roundup
Issued by NWS Jackson, KY

Home | Current Version | Previous Version | Graphics & Text | Print | Product List | Glossary On
Versions: 1 2 3 4 5 6 7 8 9 10 11 12 13 14 15 16 17 18 19 20 21 22 23 24 25 26 27 28 29 30 31 32 33 34 35 36 37 38 39 40 41 42 43 44 45 46 47 48 49 50
000
ASUS43 KJKL 072210
RWRJKL

EAST KENTUCKY HOURLY WEATHER ROUNDUP
NATIONAL WEATHER SERVICE JACKSON KY
600 PM EDT TUE JUL 07 2015

NOTE: "FAIR" INDICATES FEW OR NO CLOUDS BELOW 12,000 FEET WITH
NO SIGNIFICANT WEATHER AND/OR OBSTRUCTIONS TO VISIBILITY.

* THESE REPORTS ARE NOT UNDER NWS QUALITY CONTROL AND MAY NOT
  REPORT WEATHER SUCH AS PRECIPITATION AND FOG.

KYZ079-080-083-085-087-088-110-112-115-119-120-072300
...EASTERN KENTUCKY...

CITY           SKY/WX    TMP DP  RH WIND       PRES   REMARKS
JACKSON        CLOUDY    78  70  76 CALM      30.05F
LONDON         PTSUNNY   86  63  45 SW10      30.05F
SOMERSET*      CLOUDY    81  68  65 W9        30.05F
MONTICELLO*    PTSUNNY   85  72  65 SW9       30.07F HX  91
MIDDLESBORO*   PTSUNNY   85  71  60 S6        30.08S HX  90
HARLAN APT*      N/A     82  64  54 SW3       30.09S
HAZARD APT*    CLEAR     82  75  78 SW6       30.05F
BLACK MTN*       N/A     70  66  88 SE5         N/A
PIKEVILLE APT* CLOUDY    75  68  78 CALM      30.07F
BIG SANDY*     CLOUDY    81  71  71 SW6       30.05S
MOREHEAD APT*  CLOUDY    79  72  78 W25G38    30.08R HAZE
$$

KYZ035-036-041-042-044-050-067-078-099-072300
...CENTRAL KENTUCKY...

CITY           SKY/WX    TMP DP  RH WIND       PRES   REMARKS
MT STERLING*   CLOUDY    68  68 100 W7        30.04F
FLEMING/MASON* LGT RAIN  72  70  94 SW16      30.02R
DANVILLE*      CLOUDY    81  70  69 SW7       30.04F
RICHMOND*      CLOUDY    82  70  65 SW9       30.03S
LEXINGTON      LGT RAIN  72  69  90 SW6       30.02F
FRANKFORT      CLOUDY    72  69  90 SW7       30.00F
$$

KYZ091>093-OHZ055-061-077-WVZ005-015-034-035-042-072300
...SOUTHERN OHIO/WEST VIRGINIA...

CITY           SKY/WX    TMP DP  RH WIND       PRES   REMARKS
COVINGTON      LGT RAIN  75  71  87 SW8       29.97R FOG
COLUMBUS       CLOUDY    75  72  90 SW6       29.94S
DAYTON         LGT RAIN  72  70  93 W7        29.96R FOG
WILMINGTON     CLOUDY    75  70  84 SW15      29.95S
HUNTINGTON     CLOUDY    75  70  84 E3        30.00F
CHARLESTON     CLOUDY    81  70  69 SE6       30.02R
PINEVILLE*     PTSUNNY   75  70  84 MISG      30.15F
BECKLEY        PTSUNNY   79  63  57 SW12G18   30.14R
BLUEFIELD      MOSUNNY   81  63  54 W9        30.17S
$$

VAZ002-007-008-TNZ017-027-036-066-071-072300
...SOUTHWEST VIRGINIA/EAST TENNESSEE...

CITY           SKY/WX    TMP DP  RH WIND       PRES   REMARKS
WISE*          PTSUNNY   81  64  57 SW13G18   30.17S
JONESVILLE*      N/A    N/A N/A N/A MISG        N/A
ABINGDON*      MOSUNNY   83  66  56 W7        30.14S
BRISTOL        PTSUNNY   86  65  49 SW15      30.11S
KNOXVILLE      PTSUNNY   88  68  51 SW15      30.07F HX  91
OAK RIDGE      MOSUNNY   89  69  51 VRB5      30.08F HX  93
CROSSVILLE     PTSUNNY   82  66  58 SW7       30.13F
NASHVILLE      PTSUNNY   87  72  60 SW8G18    30.03F HX  93
$$

...KEY TO REMARKS...
VSB - VISIBILITY IN MILES
WCI - WIND CHILL INDEX
HX  - HEAT INDEX

$$



USA.gov is the U.S. government's official web portal to all federal, state and local government web resources and services.